STARLINK-11119 [DTC] (60121 NORAD) Tracking and Keplerian Element Data

This shows tracking and keplerian element data for the satellite.

Feedback or suggestion? Click here.




ElementValue
Catalog60121
NameSTARLINK-11119 [DTC]
Epoch Orbit1745
Epoch Day286.87720316
Epoch Year2024
RAAN228.9946
Inclination53.1566
Eccentricity0.0001202
Argument of Perigee64.1263
Mean Anonmoly295.9879
Mean Motion15.69783366
Decay Rate0.00049295
L11 60121U 24118J 24286.87720316 .00049295 00000+0 40808-3 0 9993
L22 60121 53.1566 228.9946 0001202 64.1263 295.9879 15.69783366 17455



Live tracking and technical data element details for STARLINK-11119 [DTC] (NORAD 60121). STARLINK-11119 [DTC] can be tracked NOW for your location showing map with azimuth and elevation plus other details from your city location.







IsCatalogInMostPopularTable: catalog: 60121, numindb: 8
Update: records affected: 1



GetName: 60121 STARLINK-11119 [DTC]

Hit Count: updated at: Thu, 23 Jan 2025 15:06:56 GMT